User: anonymous   Login
Location: Unspecified
(0.0000°N, 0.0000°E)
Time: 02:11:56
(UTC+00:00)
Language:

STARLINK-32774 - Orbit

View from above orbital plane
View from above orbital plane
View from above satellite
View from above satellite

Ground track
Ground track

The orbit is defined by the following mean orbital elements,

1 62737U          26145.54199926 +.00000000 +00000-0 +64656-3 0 00001
2 62737  43.0029  83.5992 0001389 272.4241  87.6452 15.27588273    04
Epoch (UTC): 25 May 2026 13:00:28
Eccentricity: 0.0001389
inclination: 43.0029°
perigee height: 482 km
apogee height: 484 km
right ascension of ascending node: 83.5992°
argument of perigee: 272.4241°
revolutions per day: 15.27588273
mean anomaly at epoch: 87.6452°

The dashed part of the orbit path shows where the satellite is in the earth's shadow,  

DLR